Portada
METAR-TAF:

METAR-TAF

Aeroports :

Tsushima, Japó

latitud: 34-17N, longitud: 129-20E, altitud: 63 m

Observació

L'informe es va fer fa 54 minuts, a les 06:00 UTC
Vent 12 kt del Oest, variant entre Sud-Oest i Nord-Oest
Temperatura 8°C
Humitat 46%
Pressió 1021 hPa
Visibilitat 10 km o més
Escasses núvols a una alçada de 4000 ft
Cel ennuvolat a una alçada de 4500 ft

METAR: RJDT 060600Z 27012KT 230V320 9999 FEW040 BKN045 08/M03 Q1021

Hora: 15:54 (06:54 UTC)


TAF: manca

Observacions i pronòstics meteorològics de més de 4000 aeroports (METAR i TAF).

Les estacions disponibles són els punts grocs i vermells al mapa.

Posi el ratolí al punt desitjat per veure el nom de l'estació.

Feu clic per veure les observacions i els pronòstics meteorològics.

Per canviar el mapa: feu clic els botons verds amb una creu de color negre per apropar; al botó verd amb un guió per allunyar la imatge; o en les fletxes verdes per a mapes adjacents.


METAR-TAF: